Weather History for OTBD - February, 2013

Change the Weather History Date:

Wednesday, February 13, 2013

  Actual Average Record
Temperature  
Mean Temperature 72 °F -  
Max Temperature 79 °F 76 °F 79 °F (2013)
Min Temperature 64 °F 59 °F 55 °F (1997)
Cooling Degree Days 8    
Growing Degree Days 22 (Base 50)    
Moisture  
Dew Point 60 °F    
Average Humidity 66    
Maximum Humidity 83    
Minimum Humidity 49    
Precipitation  
Precipitation 0.00 in 0.02 in - ()
Sea Level Pressure  
Sea Level Pressure 30.00 in    
Wind  
Wind Speed 8 mph ()    
Max Wind Speed 20 mph    
Max Gust Speed -    
Visibility 4.3 miles    
Events      
Averages and records for this station are not official NWS values.
T = Trace of Precipitation, MM = Missing Value Source: Averaged Metar Reports

Daily Weather History Graph

Daily Weather History Graph

Search for Another Location

Airport or City:

Trip Planner

Search our weather history database for the weather conditions in past years. The results will help you decide how hot, cold, wet, or windy it might be!

Date:

Astronomy

Feb. 13, 2013 Rise Set
Actual Time 6:09 AM AST 5:26 PM AST
Civil Twilight 5:46 AM AST 5:49 PM AST
Nautical Twilight 5:19 AM AST 6:16 PM AST
Astronomical Twilight 4:52 AM AST 6:43 PM AST
Moon 7:52 AM AST (2/13) 8:35 PM AST (2/13)
Length of Visible Light 12h 03m
Length of Day
11h 16m
Waxing Crescent, 11% of the Moon is Illuminated
Feb 13
Waxing Crescent
Feb 17
First Quarter
Feb 25
Full
Mar 5
Last Quarter
Mar 11
New

Hourly Weather History & Observations

Time (AST) Temp. Dew Point Humidity Pressure Visibility Wind Dir Wind Speed Gust Speed Precip Events Conditions
12:00 AM 69.8 °F 62.6 °F 78% 29.92 in 5.0 mi SE 6.9 mph - N/A   Unknown
12:30 AM 69.8 °F 64.4 °F 83% 29.92 in 4.3 mi SSE 4.6 mph - N/A   Unknown
1:00 AM 69.8 °F 64.4 °F 83% 29.92 in 5.0 mi SSE 4.6 mph - N/A   Unknown
1:30 AM 69.8 °F 62.6 °F 78% 29.92 in 4.3 mi Variable 2.3 mph - N/A   Unknown
2:00 AM 68.0 °F 62.6 °F 83% 29.92 in 4.3 mi SSW 3.5 mph - N/A   Unknown
3:00 AM 68 °F 62 °F 77% 29.92 in 4 mi 2.3 mph - -   Haze
3:00 AM 68.0 °F 62.6 °F 83% 29.92 in 4.3 mi Variable 2.3 mph - N/A   Unknown
4:00 AM 68.0 °F 62.6 °F 83% 29.92 in 3.7 mi West 3.5 mph - N/A   Unknown
5:00 AM 68.0 °F 60.8 °F 78% 29.95 in 3.1 mi WNW 4.6 mph - N/A   Haze
5:30 AM 66.2 °F 60.8 °F 83% 29.95 in 3.1 mi NW 4.6 mph - N/A   Haze
6:00 AM 66.2 °F 60.8 °F 83% 29.98 in 2.5 mi NNW 4.6 mph - N/A   Haze
6:30 AM 68.0 °F 60.8 °F 78% 29.98 in 2.2 mi NW 3.5 mph - N/A   Haze
7:00 AM 68.0 °F 60.8 °F 78% 30.01 in 2.2 mi NNW 3.5 mph - N/A   Haze
7:30 AM 69.8 °F 60.8 °F 73% 30.01 in 3.1 mi NNW 5.8 mph - N/A   Haze
8:00 AM 71.6 °F 59.0 °F 64% 30.01 in 3.7 mi North 6.9 mph - N/A   Unknown
8:30 AM 73.4 °F 59.0 °F 61% 30.01 in 4.3 mi NNW 9.2 mph - N/A   Unknown
9:00 AM 74 °F 59 °F 49% 30.04 in 5 mi North 8.1 mph - -   Smoke
9:00 AM 73.4 °F 59.0 °F 61% 30.04 in 5.0 mi North 8.1 mph - N/A   Unknown
9:30 AM 77.0 °F 57.2 °F 50% 30.04 in 5.6 mi NNW 9.2 mph - N/A   Unknown
10:00 AM 75.2 °F 57.2 °F 53% 30.04 in - North 9.2 mph - N/A   Clear
10:30 AM 77.0 °F 57.2 °F 50% 30.04 in - North 10.4 mph - N/A   Clear
11:00 AM 77.0 °F 59.0 °F 54% 30.01 in - North 10.4 mph - N/A   Clear
11:30 AM 78.8 °F 59.0 °F 51% 30.01 in 5.6 mi North 9.2 mph - N/A   Unknown
12:00 PM 78.8 °F 60.8 °F 54% 30.01 in 5.0 mi North 11.5 mph - N/A   Unknown
12:30 PM 78.8 °F 60.8 °F 54% 29.98 in 5.0 mi North 13.8 mph - N/A   Unknown
1:00 PM 78.8 °F 62.6 °F 57% 29.98 in 5.0 mi North 15.0 mph - N/A   Unknown
1:30 PM 77.0 °F 64.4 °F 65% 29.98 in 4.3 mi NNE 15.0 mph - N/A   Unknown
2:00 PM 77.0 °F 64.4 °F 65% 29.98 in 4.3 mi North 16.1 mph - N/A   Unknown
3:00 PM 76 °F 65 °F 60% 29.98 in 4 mi North 18.4 mph - -   Widespread Dust
3:00 PM 77.0 °F 64.4 °F 65% 29.98 in 4.3 mi North 18.4 mph - N/A   Scattered Clouds
3:30 PM 75.2 °F 62.6 °F 65% 29.98 in 4.3 mi North 17.3 mph - N/A   Scattered Clouds
4:00 PM 75.2 °F 62.6 °F 65% 29.98 in 4.3 mi North 18.4 mph - N/A   Partly Cloudy
5:00 PM 73.4 °F 59.0 °F 61% 30.01 in 4.3 mi NNW 19.6 mph - N/A   Unknown
5:30 PM 71.6 °F 59.0 °F 64% 30.01 in 4.3 mi NNW 17.3 mph - N/A   Unknown
6:00 PM 71.6 °F 57.2 °F 60% 30.01 in 5.0 mi NNW 16.1 mph - N/A   Unknown
6:30 PM 69.8 °F 55.4 °F 60% 30.01 in 5.6 mi NNW 16.1 mph - N/A   Unknown
7:00 PM 69.8 °F 57.2 °F 64% 30.04 in - NNW 12.7 mph - N/A   Clear
7:30 PM 68.0 °F 55.4 °F 64% 30.04 in - NNW 13.8 mph - N/A   Clear
8:00 PM 68.0 °F 55.4 °F 64% 30.04 in - NNW 12.7 mph - N/A   Clear
8:30 PM 66.2 °F 55.4 °F 68% 30.04 in - NNW 11.5 mph - N/A   Clear
9:00 PM 67 °F 55 °F 57% 30.05 in 6 mi NNW 11.5 mph - -  
9:00 PM 66.2 °F 55.4 °F 68% 30.04 in - NNW 11.5 mph - N/A   Clear
9:30 PM 66.2 °F 55.4 °F 68% 30.04 in - NW 11.5 mph - N/A   Clear
10:00 PM 66.2 °F 53.6 °F 64% 30.04 in - NW 11.5 mph - N/A   Clear
10:30 PM 66.2 °F 51.8 °F 60% 30.04 in - NW 15.0 mph - N/A   Clear
11:30 PM 64.4 °F 51.8 °F 64% 30.04 in - NW 12.7 mph - N/A   Clear